Flag for Canada Weather past 2 weeks in Burlington, Ontario, Canada

Now
66 °F

Mild.


Feels Like: 66 °F
Forecast: 56 / 70 °F
Wind: 8 mph from Northwest

Location: Burlington Piers

Current Time: Aug 28, 2014 at 11:18:04 PM

Latest Report: Aug 28, 2014 at 10:00 PM


Visibility: N/A

Pressure: 30.13 "Hg

Humidity: 50%

Dew point: 46 °F

Location of BurlingtonLocation

Historic Weather in Burlington — Graph

°F

Burlington temperature yesterday

Maximum temperature yesterday: 76 °F (at 12:00 AM)
Minimum temperature yesterday: 64 °F (at 11:00 PM)
Average temperature yesterday: 71 °F

Past Weeks' High & Low Weather Summary

 TemperatureHumidityPressure
High85 °F (Aug 26, 5:00 PM)99% (Aug 24, 2:00 AM)30.18 "Hg (Aug 24, 2:00 AM)
Low54 °F (Aug 15, 8:00 AM)35% (Aug 28, 6:00 PM)29.80 "Hg (Aug 16, 3:00 PM)
Average66 °F77%29.98 "Hg
* Reported Aug 13 10:00 PM — Aug 28 10:00 PM, Burlington, Weather by CustomWeather, © 2014

Note: Actual official high and low records may vary slightly from our data, if they occured in-between our weather recording intervals... More about our weather records

Advertising

Burlington weather history for previous 24 hours

 ConditionsComfort  
Time TempWeatherWind HumidityBarometerVisibility
10:00 PM
Aug 28
66 °FMild.8 mph50%30.13 "HgN/A
9:00 PM67 °FMild.3 mph59%30.11 "HgN/A
8:00 PM67 °FMild.7 mph59%30.09 "HgN/A
7:00 PM69 °FMild.10 mph54%30.07 "HgN/A
6:00 PM72 °FMild.7 mph35%30.07 "HgN/A
5:00 PM72 °FMild.8 mph37%30.07 "HgN/A
4:00 PM72 °FMild.8 mph39%30.07 "HgN/A
3:00 PM70 °FMild.7 mph39%30.08 "HgN/A
2:00 PM69 °FMild.6 mph37%30.09 "HgN/A
1:00 PM67 °FMild.8 mph47%30.10 "HgN/A
12:00 PM66 °FMild.12 mph52%30.11 "HgN/A
11:00 AM65 °FMild.12 mph54%30.12 "HgN/A
10:00 AM63 °FMild.14 mph61%30.12 "HgN/A
9:00 AM62 °FCool.8 mph63%30.11 "HgN/A
8:00 AM61 °FCool.12 mph70%30.10 "HgN/A
7:00 AM58 °FCool.5 mph76%30.08 "HgN/A
6:00 AM59 °FCool.10 mph71%30.06 "HgN/A
5:00 AM59 °FCool.14 mph69%30.04 "HgN/A
4:00 AM59 °FCool.10 mph74%30.05 "HgN/A
3:00 AM59 °FCool.12 mph72%30.06 "HgN/A
2:00 AM60 °FCool.9 mph70%30.06 "HgN/A
1:00 AM60 °FCool.6 mph67%30.08 "HgN/A
12:00 AM62 °FCool.5 mph68%30.08 "HgN/A
11:00 PM
Aug 27
64 °FMild.7 mph62%30.08 "HgN/A
Weather by CustomWeather, © 2014

See weather overviewHow to use our weather pages